EW9593 Weather Reports


Display with metric or nautical units.
time (UTC)temp
F
wind
direction
speed
MPH
gust
MPH
rain 1hr
in
rain 24hr
in
rain mn
in
humidity
%
barometer
mb
20200224093722 62 260 3.0 0.0 0.00 0.00 0.00 99 1.1
20200224092723 62 267 4.0 0.0 0.00 0.00 0.00 99 1.1
20200224091723 62 265 2.0 0.0 0.00 0.00 0.00 99 1.1
20200224090822 62 264 1.0 0.0 0.00 0.00 0.00 99 1.1
20200224085822 62 270 1.0 0.0 0.00 0.00 0.00 99 1.1
20200224084921 62 180 0.0 0.0 0.00 0.00 0.00 99 1.1
20200224083923 62 244 1.0 0.0 0.00 0.00 0.00 98 1.1
20200224083021 62 270 0.0 0.0 0.00 0.00 0.00 98 1.1
20200224082023 62 270 0.0 0.0 0.00 0.00 0.00 99 1.1
20200224081123 62 225 1.0 0.0 0.00 0.00 0.00 99 1.1
20200224080122 62 248 0.0 0.0 0.00 0.00 0.00 97 1.1
20200224075123 62 264 0.0 0.0 0.00 0.00 0.00 98 1.1
20200224074123 62 270 1.0 0.0 0.00 0.00 0.00 98 1.1
20200224073222 62 226 0.0 0.0 0.00 0.00 0.00 97 1.1
20200224072224 62 251 1.0 0.0 0.00 0.00 0.00 97 1.1
20200224071324 62 247 1.0 0.0 0.00 0.00 0.00 96 1.1
20200224070323 62 270 0.0 0.0 0.00 0.00 0.00 97 1.1
20200224065321 62 264 2.0 0.0 0.00 0.00 0.00 97 1.1
20200224064421 62 244 2.0 0.0 0.00 0.00 0.00 97 1.1
20200224063422 62 230 1.0 0.0 0.00 0.00 0.00 96 1.1
20200224062423 62 272 1.0 0.0 0.00 0.00 0.00 96 1.1
20200224061425 62 245 2.0 0.0 0.00 0.00 0.00 95 1.1
20200224060522 63 249 2.0 0.0 0.00 0.00 0.00 95 1.1
20200224055523 63 258 1.0 0.0 0.00 0.00 0.00 95 1.1
20200224054619 63 225 0.0 0.0 0.00 0.00 0.00 94 1.1
20200224053622 63 216 1.0 0.0 0.00 0.00 0.00 94 1.1
20200224052722 63 257 3.0 0.0 0.00 0.00 0.00 93 1.1
20200224051723 63 229 1.0 0.0 0.00 0.00 0.00 92 1.1
20200224050820 63 250 1.0 0.0 0.00 0.00 0.00 93 1.1
20200224045821 63 217 1.0 0.0 0.00 0.00 0.00 92 1.1
20200224044822 63 205 1.0 0.0 0.00 0.00 0.00 92 1.1
20200224043921 63 222 2.0 0.0 0.00 0.00 0.00 92 1.1
20200224043020 63 225 2.0 0.0 0.00 0.00 0.00 90 1.1
20200224042022 63 202 1.0 0.0 0.00 0.00 0.00 90 1.1
20200224041119 63 219 1.0 0.0 0.00 0.00 0.00 90 1.1
20200224040122 63 207 3.0 0.0 0.00 0.00 0.00 90 1.1
20200224035219 62 209 4.0 0.0 0.00 0.00 0.00 90 1.1
20200224034222 62 194 4.0 0.0 0.00 0.00 0.00 89 1.1
20200224033221 62 194 3.0 0.0 0.00 0.00 0.00 90 1.1
20200224032322 62 185 3.0 0.0 0.00 0.00 0.00 89 1.1
20200224031420 62 198 4.0 0.0 0.00 0.00 0.00 89 1.1
20200224030420 62 191 3.0 0.0 0.00 0.00 0.00 88 1.1
20200224025421 62 209 2.0 0.0 0.00 0.00 0.00 88 1.1
20200224024421 62 188 3.0 0.0 0.00 0.00 0.00 87 1.1
20200224023422 63 194 2.0 0.0 0.00 0.00 0.00 87 1.1
20200224022521 63 193 4.0 0.0 0.00 0.00 0.00 87 1.1
20200224021522 63 193 6.0 0.0 0.00 0.00 0.00 86 1.1
20200224020522 63 213 2.0 0.0 0.00 0.00 0.00 86 1.1
20200224015620 62 187 7.0 0.0 0.00 0.00 0.00 86 1.1
20200224014720 62 185 6.0 0.0 0.00 0.00 0.00 88 1.1
20200224013719 62 186 3.0 0.0 0.00 0.00 0.00 87 1.1
20200224012723 62 183 2.0 0.0 0.00 0.00 0.00 88 1.1
20200224011721 62 179 4.0 0.0 0.00 0.00 0.00 87 1.1
20200224010721 62 177 3.0 0.0 0.00 0.00 0.00 88 1.1
20200224005819 62 182 3.0 0.0 0.00 0.00 0.00 87 1.1
20200224004822 62 177 3.0 0.0 0.00 0.00 0.00 86 1.1
20200224003921 63 175 2.0 0.0 0.00 0.00 0.00 85 1.1
20200224002920 63 180 0.0 0.0 0.00 0.00 0.00 86 1.1
20200224001921 63 180 0.0 0.0 0.00 0.00 0.00 84 1.1
20200224001021 64 180 1.0 0.0 0.00 0.00 0.00 84 1.1
20200224000024 64 135 1.0 0.0 0.00 0.00 0.00 83 1.1
20200223235123 64 135 1.0 0.0 0.00 0.00 0.00 83 1.1
20200223234222 64 135 1.0 0.0 0.00 0.00 0.00 81 1.1
20200223233320 64 180 0.0 0.0 0.00 0.00 0.00 81 1.1
20200223232324 65 180 0.0 0.0 0.00 0.00 0.00 81 1.1
20200223231423 65 180 0.0 0.0 0.00 0.00 0.00 81 1.1
20200223230421 65 180 0.0 0.0 0.00 0.00 0.00 81 1.1
20200223225519 65 180 1.0 0.0 0.00 0.00 0.00 80 1.1
20200223224520 65 188 2.0 0.0 0.00 0.00 0.00 80 1.1
20200223223620 65 180 1.0 0.0 0.00 0.00 0.00 80 1.1
20200223222622 65 183 2.0 0.0 0.00 0.00 0.00 80 1.1
20200223221623 65 225 0.0 0.0 0.00 0.00 0.00 79 1.1
20200223220720 65 184 2.0 0.0 0.00 0.00 0.00 79 1.1
20200223215720 65 195 2.0 0.0 0.00 0.00 0.00 78 1.1
20200223214720 65 194 3.0 0.0 0.00 0.00 0.00 78 1.1
20200223213821 65 202 0.0 0.0 0.00 0.00 0.00 79 1.1
20200223212822 65 263 2.0 0.0 0.00 0.00 0.00 79 1.1
20200223211921 65 223 1.0 0.0 0.00 0.00 0.00 77 1.1
20200223211019 65 208 2.0 0.0 0.00 0.00 0.00 77 1.1
20200223210022 65 203 4.0 0.0 0.00 0.00 0.00 77 1.1
20200223205119 65 194 5.0 0.0 0.00 0.00 0.00 77 1.1
20200223204219 65 234 2.0 0.0 0.00 0.00 0.00 75 1.1
20200223203221 65 213 2.0 0.0 0.00 0.00 0.00 75 1.1
20200223202323 65 251 2.0 0.0 0.00 0.00 0.00 76 1.1
20200223201321 65 244 1.0 0.0 0.00 0.00 0.00 76 1.1
20200223200421 65 216 3.0 0.0 0.00 0.00 0.00 76 1.1
20200223195421 65 218 2.0 0.0 0.00 0.00 0.00 76 1.1
20200223194420 65 230 3.0 0.0 0.00 0.00 0.00 75 1.1
20200223193422 66 198 6.0 0.0 0.00 0.00 0.00 75 1.1
20200223192422 65 241 3.0 0.0 0.00 0.00 0.00 74 1.1
20200223191422 65 232 2.0 0.0 0.00 0.00 0.00 76 1.1
20200223190521 64 244 2.0 0.0 0.00 0.00 0.00 78 1.1
20200223185521 64 221 3.0 0.0 0.00 0.00 0.00 78 1.1
20200223184620 64 207 4.0 0.0 0.00 0.00 0.00 79 1.1
20200223183621 64 237 3.0 0.0 0.00 0.00 0.00 78 1.1
20200223182722 64 217 2.0 0.0 0.00 0.00 0.00 77 1.1
20200223181722 64 232 3.0 0.0 0.00 0.00 0.00 79 1.1
20200223180722 63 214 4.0 0.0 0.00 0.00 0.00 82 1.1
20200223175720 62 219 5.0 0.0 0.00 0.00 0.00 84 1.1
20200223174820 60 213 5.0 0.0 0.00 0.00 0.00 86 1.1
20200223173819 60 222 1.0 0.0 0.00 0.00 0.00 87 1.1
20200223172823 59 222 1.0 0.0 0.00 0.00 0.00 88 1.1
20200223171921 59 220 2.0 0.0 0.00 0.00 0.00 88 1.1
20200223171020 59 219 4.0 0.0 0.00 0.00 0.00 88 1.1
20200223170021 59 219 5.0 0.0 0.00 0.00 0.00 89 1.1
20200223165119 58 238 2.0 0.0 0.00 0.00 0.00 90 1.1
20200223164121 58 236 3.0 0.0 0.00 0.00 0.00 90 1.1
20200223163121 57 211 5.0 0.0 0.00 0.00 0.00 90 1.1
20200223162121 57 210 2.0 0.0 0.00 0.00 0.00 90 1.1
20200223161121 56 215 3.0 0.0 0.00 0.00 0.00 92 1.1
20200223160122 56 212 3.0 0.0 0.00 0.00 0.00 92 1.1
20200223155120 56 206 3.0 0.0 0.00 0.00 0.00 91 1.1
20200223154122 55 213 3.0 0.0 0.00 0.00 0.00 92 1.1
20200223153219 55 231 1.0 0.0 0.00 0.00 0.00 93 1.1
20200223152223 55 189 1.0 0.0 0.00 0.00 0.00 92 1.1
20200223151321 55 186 1.0 0.0 0.00 0.00 0.00 93 1.1
20200223150420 54 234 1.0 0.0 0.00 0.00 0.00 93 1.1
20200223145421 54 222 0.0 0.0 0.00 0.00 0.00 92 1.1
20200223144519 54 201 0.0 0.0 0.00 0.00 0.00 91 1.1
20200223143522 54 194 2.0 0.0 0.00 0.00 0.00 92 1.1
20200223142522 53 211 3.0 0.0 0.00 0.00 0.00 92 1.1
20200223141624 53 202 1.0 0.0 0.00 0.00 0.00 92 1.1
20200223140621 53 196 3.0 0.0 0.00 0.00 0.00 91 1.1
20200223135621 53 225 0.0 0.0 0.00 0.00 0.00 91 1.1
20200223134622 53 191 3.0 0.0 0.00 0.00 0.00 91 1.1
20200223133621 52 202 2.0 0.0 0.00 0.00 0.00 92 1.1
20200223132623 52 202 0.0 0.0 0.00 0.00 0.00 91 1.1
20200223131722 52 187 2.0 0.0 0.00 0.00 0.00 91 1.1
20200223130822 52 197 2.0 0.0 0.00 0.00 0.00 92 1.1
20200223125822 52 203 1.0 0.0 0.00 0.00 0.00 92 1.1
20200223124822 52 183 2.0 0.0 0.00 0.00 0.00 92 1.1
20200223123821 52 181 2.0 0.0 0.00 0.00 0.00 92 1.1
20200223122920 52 194 2.0 0.0 0.00 0.00 0.00 91 1.1
20200223121922 52 196 0.0 0.0 0.00 0.00 0.00 90 1.1
20200223120924 52 225 1.0 0.0 0.00 0.00 0.00 90 1.1
20200223115922 52 202 2.0 0.0 0.00 0.00 0.00 91 1.1
20200223114921 52 261 0.0 0.0 0.00 0.00 0.00 91 1.1
20200223113920 52 225 0.0 0.0 0.00 0.00 0.00 91 1.1
20200223112922 52 217 1.0 0.0 0.00 0.00 0.00 91 1.1
20200223111922 52 193 0.0 0.0 0.00 0.00 0.00 90 1.1
20200223111023 52 202 0.0 0.0 0.00 0.00 0.00 91 1.1
20200223110022 52 180 0.0 0.0 0.00 0.00 0.00 90 1.1
20200223105021 52 202 0.0 0.0 0.00 0.00 0.00 90 1.1
20200223104120 52 286 1.0 0.0 0.00 0.00 0.00 90 1.1
20200223103122 52 180 0.0 0.0 0.00 0.00 0.00 90 1.1
20200223102122 52 183 3.0 0.0 0.00 0.00 0.00 90 1.1
20200223101222 52 215 1.0 0.0 0.00 0.00 0.00 90 1.1
20200223100319 52 186 1.0 0.0 0.00 0.00 0.00 89 1.1
20200223095321 52 223 2.0 0.0 0.00 0.00 0.00 89 1.1